Year,Month,Day,Hour,Minute,Value (Times are PST for insolation in W/m^2)
2009,10,11,00,00,0.00
2009,10,11,00,01,0.00
2009,10,11,00,02,0.00
2009,10,11,00,03,0.00
2009,10,11,00,04,0.00
2009,10,11,00,05,0.00
2009,10,11,00,06,0.00
2009,10,11,00,07,0.00
2009,10,11,00,08,0.00
2009,10,11,00,09,0.00
2009,10,11,00,10,0.00
2009,10,11,00,11,0.00
2009,10,11,00,12,0.00
2009,10,11,00,13,0.00
2009,10,11,00,14,0.00
2009,10,11,00,15,0.00
2009,10,11,00,16,0.00
2009,10,11,00,17,0.00
2009,10,11,00,18,0.00
2009,10,11,00,19,0.00
2009,10,11,00,20,0.00
2009,10,11,00,21,0.00
2009,10,11,00,22,0.00
2009,10,11,00,23,0.00
2009,10,11,00,24,0.00
2009,10,11,00,25,0.00
2009,10,11,00,26,0.00
2009,10,11,00,27,0.00
2009,10,11,00,28,0.00
2009,10,11,00,29,0.00
2009,10,11,00,30,0.00
2009,10,11,00,31,0.00
2009,10,11,00,32,0.00
2009,10,11,00,33,0.00
2009,10,11,00,34,0.00
2009,10,11,00,35,0.00
2009,10,11,00,36,0.00
2009,10,11,00,37,0.00
2009,10,11,00,38,0.00
2009,10,11,00,39,0.00
2009,10,11,00,40,0.00
2009,10,11,00,41,0.00
2009,10,11,00,42,0.00
2009,10,11,00,43,0.00
2009,10,11,00,44,0.00
2009,10,11,00,45,0.00
2009,10,11,00,46,0.00
2009,10,11,00,47,0.00
2009,10,11,00,48,0.00
2009,10,11,00,49,0.00
2009,10,11,00,50,0.00
2009,10,11,00,51,0.00
2009,10,11,00,52,0.00
2009,10,11,00,53,0.00
2009,10,11,00,54,0.00
2009,10,11,00,55,0.00
2009,10,11,00,56,0.00
2009,10,11,00,57,0.00
2009,10,11,00,58,0.00
2009,10,11,00,59,0.00
2009,10,11,01,00,0.00
2009,10,11,01,01,0.00
2009,10,11,01,02,0.00
2009,10,11,01,03,0.00
2009,10,11,01,04,0.00
2009,10,11,01,05,0.00
2009,10,11,01,06,0.00
2009,10,11,01,07,0.00
2009,10,11,01,08,0.00
2009,10,11,01,09,0.00
2009,10,11,01,10,0.00
2009,10,11,01,11,0.00
2009,10,11,01,12,0.00
2009,10,11,01,13,0.00
2009,10,11,01,14,0.00
2009,10,11,01,15,0.00
2009,10,11,01,16,0.00
2009,10,11,01,17,0.00
2009,10,11,01,18,0.00
2009,10,11,01,19,0.00
2009,10,11,01,20,0.00
2009,10,11,01,21,0.00
2009,10,11,01,22,0.00
2009,10,11,01,23,0.00
2009,10,11,01,24,0.00
2009,10,11,01,25,0.00
2009,10,11,01,26,0.00
2009,10,11,01,27,0.00
2009,10,11,01,28,0.00
2009,10,11,01,29,0.00
2009,10,11,01,30,0.00
2009,10,11,01,31,0.00
2009,10,11,01,32,0.00
2009,10,11,01,33,0.00
2009,10,11,01,34,0.00
2009,10,11,01,35,0.00
2009,10,11,01,36,0.00
2009,10,11,01,37,0.00
2009,10,11,01,38,0.00
2009,10,11,01,39,0.00
2009,10,11,01,40,0.00
2009,10,11,01,41,0.00
2009,10,11,01,42,0.00
2009,10,11,01,43,0.00
2009,10,11,01,44,0.00
2009,10,11,01,45,0.00
2009,10,11,01,46,0.00
2009,10,11,01,47,0.00
2009,10,11,01,48,0.00
2009,10,11,01,49,0.00
2009,10,11,01,50,0.00
2009,10,11,01,51,0.00
2009,10,11,01,52,0.00
2009,10,11,01,53,0.00
2009,10,11,01,54,0.00
2009,10,11,01,55,0.00
2009,10,11,01,56,0.00
2009,10,11,01,57,0.00
2009,10,11,01,58,0.00
2009,10,11,01,59,0.00
2009,10,11,02,00,0.00
2009,10,11,02,01,0.00
2009,10,11,02,02,0.00
2009,10,11,02,03,0.00
2009,10,11,02,04,0.00
2009,10,11,02,05,0.00
2009,10,11,02,06,0.00
2009,10,11,02,07,0.00
2009,10,11,02,08,0.00
2009,10,11,02,09,0.00
2009,10,11,02,10,0.00
2009,10,11,02,11,0.00
2009,10,11,02,12,0.00
2009,10,11,02,13,0.00
2009,10,11,02,14,0.00
2009,10,11,02,15,0.00
2009,10,11,02,16,0.00
2009,10,11,02,17,0.00
2009,10,11,02,18,0.00
2009,10,11,02,19,0.00
2009,10,11,02,20,0.00
2009,10,11,02,21,0.00
2009,10,11,02,22,0.00
2009,10,11,02,23,0.00
2009,10,11,02,24,0.00
2009,10,11,02,25,0.00
2009,10,11,02,26,0.00
2009,10,11,02,27,0.00
2009,10,11,02,28,0.00
2009,10,11,02,29,0.00
2009,10,11,02,30,0.00
2009,10,11,02,31,0.00
2009,10,11,02,32,0.00
2009,10,11,02,33,0.00
2009,10,11,02,34,0.00
2009,10,11,02,35,0.00
2009,10,11,02,36,0.00
2009,10,11,02,37,0.00
2009,10,11,02,38,0.00
2009,10,11,02,39,0.00
2009,10,11,02,40,0.00
2009,10,11,02,41,0.00
2009,10,11,02,42,0.00
2009,10,11,02,43,0.00
2009,10,11,02,44,0.00
2009,10,11,02,45,0.00
2009,10,11,02,46,0.00
2009,10,11,02,47,0.00
2009,10,11,02,48,0.00
2009,10,11,02,49,0.00
2009,10,11,02,50,0.00
2009,10,11,02,51,0.00
2009,10,11,02,52,0.00
2009,10,11,02,53,0.00
2009,10,11,02,54,0.00
2009,10,11,02,55,0.00
2009,10,11,02,56,0.00
2009,10,11,02,57,0.00
2009,10,11,02,58,0.00
2009,10,11,02,59,0.00
2009,10,11,03,00,0.00
2009,10,11,03,01,0.00
2009,10,11,03,02,0.00
2009,10,11,03,03,0.00
2009,10,11,03,04,0.00
2009,10,11,03,05,0.00
2009,10,11,03,06,0.00
2009,10,11,03,07,0.00
2009,10,11,03,08,0.00
2009,10,11,03,09,0.00
2009,10,11,03,10,0.00
2009,10,11,03,11,0.00
2009,10,11,03,12,0.00
2009,10,11,03,13,0.00
2009,10,11,03,14,0.00
2009,10,11,03,15,0.00
2009,10,11,03,16,0.00
2009,10,11,03,17,0.00
2009,10,11,03,18,0.00
2009,10,11,03,19,0.00
2009,10,11,03,20,0.00
2009,10,11,03,21,0.00
2009,10,11,03,22,0.00
2009,10,11,03,23,0.00
2009,10,11,03,24,0.00
2009,10,11,03,25,0.00
2009,10,11,03,26,0.00
2009,10,11,03,27,0.00
2009,10,11,03,28,0.00
2009,10,11,03,29,0.00
2009,10,11,03,30,0.00
2009,10,11,03,31,0.00
2009,10,11,03,32,0.00
2009,10,11,03,33,0.00
2009,10,11,03,34,0.00
2009,10,11,03,35,0.00
2009,10,11,03,36,0.00
2009,10,11,03,37,0.00
2009,10,11,03,38,0.00
2009,10,11,03,39,0.00
2009,10,11,03,40,0.00
2009,10,11,03,41,0.00
2009,10,11,03,42,0.00
2009,10,11,03,43,0.00
2009,10,11,03,44,0.00
2009,10,11,03,45,0.00
2009,10,11,03,46,0.00
2009,10,11,03,47,0.00
2009,10,11,03,48,0.00
2009,10,11,03,49,0.00
2009,10,11,03,50,0.00
2009,10,11,03,51,0.00
2009,10,11,03,52,0.00
2009,10,11,03,53,0.00
2009,10,11,03,54,0.00
2009,10,11,03,55,0.00
2009,10,11,03,56,0.00
2009,10,11,03,57,0.00
2009,10,11,03,58,0.00
2009,10,11,03,59,0.00
2009,10,11,04,00,0.00
2009,10,11,04,01,0.00
2009,10,11,04,02,0.00
2009,10,11,04,03,0.00
2009,10,11,04,04,0.00
2009,10,11,04,05,0.00
2009,10,11,04,06,0.00
2009,10,11,04,07,0.00
2009,10,11,04,08,0.00
2009,10,11,04,09,0.00
2009,10,11,04,10,0.00
2009,10,11,04,11,0.00
2009,10,11,04,12,0.00
2009,10,11,04,13,0.00
2009,10,11,04,14,0.00
2009,10,11,04,15,0.00
2009,10,11,04,16,0.00
2009,10,11,04,17,0.00
2009,10,11,04,18,0.00
2009,10,11,04,19,0.00
2009,10,11,04,20,0.00
2009,10,11,04,21,0.00
2009,10,11,04,22,0.00
2009,10,11,04,23,0.00
2009,10,11,04,24,0.00
2009,10,11,04,25,0.00
2009,10,11,04,26,0.00
2009,10,11,04,27,0.00
2009,10,11,04,28,0.00
2009,10,11,04,29,0.00
2009,10,11,04,30,0.00
2009,10,11,04,31,0.00
2009,10,11,04,32,0.00
2009,10,11,04,33,0.00
2009,10,11,04,34,0.00
2009,10,11,04,35,0.00
2009,10,11,04,36,0.00
2009,10,11,04,37,0.00
2009,10,11,04,38,0.00
2009,10,11,04,39,0.00
2009,10,11,04,40,0.00
2009,10,11,04,41,0.00
2009,10,11,04,42,0.00
2009,10,11,04,43,0.00
2009,10,11,04,44,0.00
2009,10,11,04,45,0.00
2009,10,11,04,46,0.00
2009,10,11,04,47,0.00
2009,10,11,04,48,0.00
2009,10,11,04,49,0.00
2009,10,11,04,50,0.00
2009,10,11,04,51,0.00
2009,10,11,04,52,0.00
2009,10,11,04,53,0.00
2009,10,11,04,54,0.00
2009,10,11,04,55,0.00
2009,10,11,04,56,0.00
2009,10,11,04,57,0.00
2009,10,11,04,58,0.00
2009,10,11,04,59,0.00
2009,10,11,05,00,0.00
2009,10,11,05,01,0.00
2009,10,11,05,02,0.00
2009,10,11,05,03,0.00
2009,10,11,05,04,0.00
2009,10,11,05,05,0.00
2009,10,11,05,06,0.00
2009,10,11,05,07,0.00
2009,10,11,05,08,0.00
2009,10,11,05,09,0.00
2009,10,11,05,10,0.00
2009,10,11,05,11,0.00
2009,10,11,05,12,0.00
2009,10,11,05,13,0.00
2009,10,11,05,14,0.00
2009,10,11,05,15,0.00
2009,10,11,05,16,0.00
2009,10,11,05,17,0.00
2009,10,11,05,18,0.00
2009,10,11,05,19,0.00
2009,10,11,05,20,0.00
2009,10,11,05,21,0.00
2009,10,11,05,22,0.00
2009,10,11,05,23,0.00
2009,10,11,05,24,0.00
2009,10,11,05,25,0.00
2009,10,11,05,26,0.00
2009,10,11,05,27,0.00
2009,10,11,05,28,0.00
2009,10,11,05,29,0.00
2009,10,11,05,30,0.00
2009,10,11,05,31,0.00
2009,10,11,05,32,0.00
2009,10,11,05,33,0.00
2009,10,11,05,34,0.00
2009,10,11,05,35,0.00
2009,10,11,05,36,0.00
2009,10,11,05,37,0.00
2009,10,11,05,38,0.00
2009,10,11,05,39,0.00
2009,10,11,05,40,0.00
2009,10,11,05,41,0.00
2009,10,11,05,42,0.00
2009,10,11,05,43,0.00
2009,10,11,05,44,0.00
2009,10,11,05,45,0.00
2009,10,11,05,46,0.00
2009,10,11,05,47,0.00
2009,10,11,05,48,0.00
2009,10,11,05,49,0.00
2009,10,11,05,50,0.00
2009,10,11,05,51,0.00
2009,10,11,05,52,0.00
2009,10,11,05,53,0.00
2009,10,11,05,54,0.00
2009,10,11,05,55,0.00
2009,10,11,05,56,0.00
2009,10,11,05,57,0.00
2009,10,11,05,58,0.00
2009,10,11,05,59,0.00
2009,10,11,06,00,0.00
2009,10,11,06,01,0.00
2009,10,11,06,02,0.00
2009,10,11,06,03,0.00
2009,10,11,06,04,0.00
2009,10,11,06,05,0.00
2009,10,11,06,06,0.00
2009,10,11,06,07,0.00
2009,10,11,06,08,0.00
2009,10,11,06,09,0.00
2009,10,11,06,10,0.00
2009,10,11,06,11,0.00
2009,10,11,06,12,0.00
2009,10,11,06,13,0.00
2009,10,11,06,14,0.00
2009,10,11,06,15,0.00
2009,10,11,06,16,0.00
2009,10,11,06,17,0.00
2009,10,11,06,18,0.00
2009,10,11,06,19,0.00
2009,10,11,06,20,0.00
2009,10,11,06,21,0.00
2009,10,11,06,22,0.00
2009,10,11,06,23,0.00
2009,10,11,06,24,0.00
2009,10,11,06,25,0.00
2009,10,11,06,26,0.00
2009,10,11,06,27,0.00
2009,10,11,06,28,0.00
2009,10,11,06,29,0.00
2009,10,11,06,30,0.00
2009,10,11,06,31,0.00
2009,10,11,06,32,0.00
2009,10,11,06,33,0.00
2009,10,11,06,34,0.00
2009,10,11,06,35,0.00
2009,10,11,06,36,0.00
2009,10,11,06,37,0.00
2009,10,11,06,38,0.00
2009,10,11,06,39,0.00
2009,10,11,06,40,0.00
2009,10,11,06,41,0.00
2009,10,11,06,42,0.00
2009,10,11,06,43,0.00
2009,10,11,06,44,0.00
2009,10,11,06,45,0.00
2009,10,11,06,46,0.00
2009,10,11,06,47,0.00
2009,10,11,06,48,0.00
2009,10,11,06,49,0.00
2009,10,11,06,50,0.00
2009,10,11,06,51,0.00
2009,10,11,06,52,0.00
2009,10,11,06,53,0.00
2009,10,11,06,54,0.00
2009,10,11,06,55,0.00
2009,10,11,06,56,0.00
2009,10,11,06,57,0.00
2009,10,11,06,58,0.00
2009,10,11,06,59,0.00
2009,10,11,07,00,0.00
2009,10,11,07,01,0.00
2009,10,11,07,02,0.00
2009,10,11,07,03,0.00
2009,10,11,07,04,0.00
2009,10,11,07,05,0.00
2009,10,11,07,06,0.00
2009,10,11,07,07,0.00
2009,10,11,07,08,0.00
2009,10,11,07,09,0.00
2009,10,11,07,10,0.00
2009,10,11,07,11,0.00
2009,10,11,07,12,0.00
2009,10,11,07,13,0.00
2009,10,11,07,14,0.00
2009,10,11,07,15,0.00
2009,10,11,07,16,0.00
2009,10,11,07,17,0.00
2009,10,11,07,18,0.00
2009,10,11,07,19,0.00
2009,10,11,07,20,0.00
2009,10,11,07,21,0.00
2009,10,11,07,22,0.00
2009,10,11,07,23,0.00
2009,10,11,07,24,0.00
2009,10,11,07,25,0.00
2009,10,11,07,26,0.00
2009,10,11,07,27,0.00
2009,10,11,07,28,0.00
2009,10,11,07,29,0.00
2009,10,11,07,30,1.40
2009,10,11,07,31,5.00
2009,10,11,07,32,6.10
2009,10,11,07,33,7.00
2009,10,11,07,34,7.00
2009,10,11,07,35,7.00
2009,10,11,07,36,8.80
2009,10,11,07,37,9.00
2009,10,11,07,38,9.00
2009,10,11,07,39,9.00
2009,10,11,07,40,9.00
2009,10,11,07,41,10.20
2009,10,11,07,42,11.00
2009,10,11,07,43,11.00
2009,10,11,07,44,11.90
2009,10,11,07,45,12.00
2009,10,11,07,46,12.30
2009,10,11,07,47,14.00
2009,10,11,07,48,14.70
2009,10,11,07,49,16.00
2009,10,11,07,50,17.10
2009,10,11,07,51,18.00
2009,10,11,07,52,18.80
2009,10,11,07,53,20.80
2009,10,11,07,54,21.20
2009,10,11,07,55,23.40
2009,10,11,07,56,25.00
2009,10,11,07,57,25.40
2009,10,11,07,58,27.00
2009,10,11,07,59,28.00
2009,10,11,08,00,29.40
2009,10,11,08,01,31.60
2009,10,11,08,02,33.00
2009,10,11,08,03,33.20
2009,10,11,08,04,35.40
2009,10,11,08,05,37.70
2009,10,11,08,06,39.00
2009,10,11,08,07,39.50
2009,10,11,08,08,41.30
2009,10,11,08,09,42.00
2009,10,11,08,10,45.40
2009,10,11,08,11,47.00
2009,10,11,08,12,47.80
2009,10,11,08,13,50.50
2009,10,11,08,14,48.20
2009,10,11,08,15,46.50
2009,10,11,08,16,44.90
2009,10,11,08,17,42.60
2009,10,11,08,18,42.00
2009,10,11,08,19,42.00
2009,10,11,08,20,40.10
2009,10,11,08,21,40.00
2009,10,11,08,22,40.00
2009,10,11,08,23,40.00
2009,10,11,08,24,40.00
2009,10,11,08,25,40.00
2009,10,11,08,26,40.00
2009,10,11,08,27,41.60
2009,10,11,08,28,42.00
2009,10,11,08,29,42.00
2009,10,11,08,30,42.50
2009,10,11,08,31,44.70
2009,10,11,08,32,46.50
2009,10,11,08,33,49.40
2009,10,11,08,34,57.20
2009,10,11,08,35,65.20
2009,10,11,08,36,67.00
2009,10,11,08,37,64.90
2009,10,11,08,38,63.00
2009,10,11,08,39,64.30
2009,10,11,08,40,67.90
2009,10,11,08,41,78.00
2009,10,11,08,42,97.40
2009,10,11,08,43,101.50
2009,10,11,08,44,124.00
2009,10,11,08,45,125.10
2009,10,11,08,46,127.90
2009,10,11,08,47,120.60
2009,10,11,08,48,99.60
2009,10,11,08,49,88.40
2009,10,11,08,50,97.60
2009,10,11,08,51,98.20
2009,10,11,08,52,100.70
2009,10,11,08,53,120.20
2009,10,11,08,54,130.20
2009,10,11,08,55,104.90
2009,10,11,08,56,91.70
2009,10,11,08,57,95.30
2009,10,11,08,58,113.90
2009,10,11,08,59,109.00
2009,10,11,09,00,125.30
2009,10,11,09,01,158.00
2009,10,11,09,02,149.80
2009,10,11,09,03,158.60
2009,10,11,09,04,162.30
2009,10,11,09,05,141.00
2009,10,11,09,06,159.90
2009,10,11,09,07,187.00
2009,10,11,09,08,190.60
2009,10,11,09,09,192.00
2009,10,11,09,10,192.00
2009,10,11,09,11,192.00
2009,10,11,09,12,192.20
2009,10,11,09,13,193.60
2009,10,11,09,14,195.70
2009,10,11,09,15,198.50
2009,10,11,09,16,201.20
2009,10,11,09,17,203.40
2009,10,11,09,18,201.00
2009,10,11,09,19,203.80
2009,10,11,09,20,206.00
2009,10,11,09,21,206.20
2009,10,11,09,22,207.70
2009,10,11,09,23,207.70
2009,10,11,09,24,191.00
2009,10,11,09,25,191.30
2009,10,11,09,26,204.40
2009,10,11,09,27,206.00
2009,10,11,09,28,216.00
2009,10,11,09,29,215.50
2009,10,11,09,30,212.40
2009,10,11,09,31,214.50
2009,10,11,09,32,220.50
2009,10,11,09,33,226.50
2009,10,11,09,34,230.00
2009,10,11,09,35,233.30
2009,10,11,09,36,235.90
2009,10,11,09,37,238.90
2009,10,11,09,38,241.30
2009,10,11,09,39,243.80
2009,10,11,09,40,246.70
2009,10,11,09,41,249.40
2009,10,11,09,42,252.20
2009,10,11,09,43,254.30
2009,10,11,09,44,256.60
2009,10,11,09,45,258.00
2009,10,11,09,46,260.20
2009,10,11,09,47,262.40
2009,10,11,09,48,264.30
2009,10,11,09,49,265.80
2009,10,11,09,50,268.00
2009,10,11,09,51,270.20
2009,10,11,09,52,271.80
2009,10,11,09,53,272.00
2009,10,11,09,54,275.90
2009,10,11,09,55,278.20
2009,10,11,09,56,279.50
2009,10,11,09,57,281.80
2009,10,11,09,58,284.00
2009,10,11,09,59,286.80
2009,10,11,10,00,288.00
2009,10,11,10,01,291.60
2009,10,11,10,02,292.00
2009,10,11,10,03,294.10
2009,10,11,10,04,295.40
2009,10,11,10,05,297.60
2009,10,11,10,06,299.80
2009,10,11,10,07,302.40
2009,10,11,10,08,304.00
2009,10,11,10,09,305.40
2009,10,11,10,10,307.80
2009,10,11,10,11,309.00
2009,10,11,10,12,309.40
2009,10,11,10,13,313.00
2009,10,11,10,14,313.60
2009,10,11,10,15,315.50
2009,10,11,10,16,318.10
2009,10,11,10,17,320.00
2009,10,11,10,18,322.20
2009,10,11,10,19,323.00
2009,10,11,10,20,324.90
2009,10,11,10,21,325.30
2009,10,11,10,22,327.80
2009,10,11,10,23,330.00
2009,10,11,10,24,330.90
2009,10,11,10,25,333.10
2009,10,11,10,26,334.00
2009,10,11,10,27,337.00
2009,10,11,10,28,338.00
2009,10,11,10,29,338.30
2009,10,11,10,30,341.50
2009,10,11,10,31,343.00
2009,10,11,10,32,344.20
2009,10,11,10,33,347.10
2009,10,11,10,34,348.00
2009,10,11,10,35,350.80
2009,10,11,10,36,352.90
2009,10,11,10,37,355.00
2009,10,11,10,38,357.00
2009,10,11,10,39,357.50
2009,10,11,10,40,359.00
2009,10,11,10,41,360.40
2009,10,11,10,42,363.10
2009,10,11,10,43,365.40
2009,10,11,10,44,366.00
2009,10,11,10,45,368.50
2009,10,11,10,46,368.90
2009,10,11,10,47,368.40
2009,10,11,10,48,373.70
2009,10,11,10,49,374.30
2009,10,11,10,50,377.10
2009,10,11,10,51,379.20
2009,10,11,10,52,380.00
2009,10,11,10,53,380.80
2009,10,11,10,54,382.90
2009,10,11,10,55,385.30
2009,10,11,10,56,387.00
2009,10,11,10,57,388.00
2009,10,11,10,58,389.00
2009,10,11,10,59,391.50
2009,10,11,11,00,394.00
2009,10,11,11,01,395.50
2009,10,11,11,02,396.90
2009,10,11,11,03,399.00
2009,10,11,11,04,399.60
2009,10,11,11,05,403.00
2009,10,11,11,06,404.30
2009,10,11,11,07,406.00
2009,10,11,11,08,407.30
2009,10,11,11,09,409.60
2009,10,11,11,10,410.80
2009,10,11,11,11,411.00
2009,10,11,11,12,413.70
2009,10,11,11,13,417.00
2009,10,11,11,14,418.20
2009,10,11,11,15,421.00
2009,10,11,11,16,423.20
2009,10,11,11,17,424.70
2009,10,11,11,18,426.50
2009,10,11,11,19,424.60
2009,10,11,11,20,419.00
2009,10,11,11,21,426.00
2009,10,11,11,22,431.80
2009,10,11,11,23,435.40
2009,10,11,11,24,435.00
2009,10,11,11,25,438.70
2009,10,11,11,26,444.40
2009,10,11,11,27,448.80
2009,10,11,11,28,450.00
2009,10,11,11,29,419.90
2009,10,11,11,30,399.40
2009,10,11,11,31,457.70
2009,10,11,11,32,455.00
2009,10,11,11,33,440.00
2009,10,11,11,34,394.70
2009,10,11,11,35,411.80
2009,10,11,11,36,401.60
2009,10,11,11,37,407.20
2009,10,11,11,38,429.30
2009,10,11,11,39,445.40
2009,10,11,11,40,457.00
2009,10,11,11,41,456.10
2009,10,11,11,42,457.20
2009,10,11,11,43,456.40
2009,10,11,11,44,454.20
2009,10,11,11,45,458.50
2009,10,11,11,46,461.90
2009,10,11,11,47,461.80
2009,10,11,11,48,461.90
2009,10,11,11,49,464.00
2009,10,11,11,50,465.80
2009,10,11,11,51,462.60
2009,10,11,11,52,466.00
2009,10,11,11,53,468.00
2009,10,11,11,54,468.90
2009,10,11,11,55,471.00
2009,10,11,11,56,471.40
2009,10,11,11,57,473.70
2009,10,11,11,58,475.50
2009,10,11,11,59,471.10
2009,10,11,12,00,473.80
2009,10,11,12,01,477.70
2009,10,11,12,02,473.30
2009,10,11,12,03,480.00
2009,10,11,12,04,480.00
2009,10,11,12,05,479.40
2009,10,11,12,06,479.60
2009,10,11,12,07,482.50
2009,10,11,12,08,483.00
2009,10,11,12,09,484.30
2009,10,11,12,10,488.00
2009,10,11,12,11,485.40
2009,10,11,12,12,487.80
2009,10,11,12,13,479.00
2009,10,11,12,14,484.30
2009,10,11,12,15,488.20
2009,10,11,12,16,490.00
2009,10,11,12,17,490.00
2009,10,11,12,18,491.60
2009,10,11,12,19,492.00
2009,10,11,12,20,495.60
2009,10,11,12,21,497.00
2009,10,11,12,22,497.60
2009,10,11,12,23,498.40
2009,10,11,12,24,492.50
2009,10,11,12,25,487.00
2009,10,11,12,26,494.60
2009,10,11,12,27,475.40
2009,10,11,12,28,487.80
2009,10,11,12,29,490.20
2009,10,11,12,30,494.40
2009,10,11,12,31,497.00
2009,10,11,12,32,499.00
2009,10,11,12,33,499.00
2009,10,11,12,34,502.30
2009,10,11,12,35,507.10
2009,10,11,12,36,504.40
2009,10,11,12,37,501.00
2009,10,11,12,38,496.20
2009,10,11,12,39,503.10
2009,10,11,12,40,519.40
2009,10,11,12,41,513.00
2009,10,11,12,42,497.80
2009,10,11,12,43,493.20
2009,10,11,12,44,485.00
2009,10,11,12,45,476.90
2009,10,11,12,46,485.40
2009,10,11,12,47,476.90
2009,10,11,12,48,484.10
2009,10,11,12,49,492.50
2009,10,11,12,50,500.10
2009,10,11,12,51,508.60
2009,10,11,12,52,515.20
2009,10,11,12,53,517.00
2009,10,11,12,54,518.80
2009,10,11,12,55,513.50
2009,10,11,12,56,515.90
2009,10,11,12,57,519.00
2009,10,11,12,58,517.20
2009,10,11,12,59,499.20
2009,10,11,13,00,503.00
2009,10,11,13,01,516.60
2009,10,11,13,02,515.30
2009,10,11,13,03,525.30
2009,10,11,13,04,511.20
2009,10,11,13,05,497.20
2009,10,11,13,06,482.70
2009,10,11,13,07,490.50
2009,10,11,13,08,503.00
2009,10,11,13,09,508.10
2009,10,11,13,10,508.30
2009,10,11,13,11,508.00
2009,10,11,13,12,507.90
2009,10,11,13,13,506.00
2009,10,11,13,14,506.50
2009,10,11,13,15,507.20
2009,10,11,13,16,507.10
2009,10,11,13,17,508.00
2009,10,11,13,18,509.40
2009,10,11,13,19,508.40
2009,10,11,13,20,499.00
2009,10,11,13,21,501.70
2009,10,11,13,22,504.60
2009,10,11,13,23,501.60
2009,10,11,13,24,503.00
2009,10,11,13,25,506.10
2009,10,11,13,26,510.60
2009,10,11,13,27,516.20
2009,10,11,13,28,518.70
2009,10,11,13,29,522.80
2009,10,11,13,30,514.30
2009,10,11,13,31,523.70
2009,10,11,13,32,528.60
2009,10,11,13,33,524.40
2009,10,11,13,34,502.10
2009,10,11,13,35,479.70
2009,10,11,13,36,465.20
2009,10,11,13,37,462.00
2009,10,11,13,38,451.20
2009,10,11,13,39,442.10
2009,10,11,13,40,441.70
2009,10,11,13,41,467.00
2009,10,11,13,42,470.60
2009,10,11,13,43,470.40
2009,10,11,13,44,467.50
2009,10,11,13,45,471.90
2009,10,11,13,46,441.70
2009,10,11,13,47,428.40
2009,10,11,13,48,436.80
2009,10,11,13,49,450.90
2009,10,11,13,50,470.50
2009,10,11,13,51,471.90
2009,10,11,13,52,451.90
2009,10,11,13,53,409.80
2009,10,11,13,54,383.10
2009,10,11,13,55,368.90
2009,10,11,13,56,331.40
2009,10,11,13,57,314.00
2009,10,11,13,58,323.40
2009,10,11,13,59,342.00
2009,10,11,14,00,353.50
2009,10,11,14,01,361.90
2009,10,11,14,02,358.50
2009,10,11,14,03,355.20
2009,10,11,14,04,338.10
2009,10,11,14,05,326.00
2009,10,11,14,06,308.80
2009,10,11,14,07,297.40
2009,10,11,14,08,291.00
2009,10,11,14,09,286.80
2009,10,11,14,10,275.40
2009,10,11,14,11,263.50
2009,10,11,14,12,250.10
2009,10,11,14,13,241.90
2009,10,11,14,14,235.00
2009,10,11,14,15,231.30
2009,10,11,14,16,230.90
2009,10,11,14,17,233.20
2009,10,11,14,18,234.00
2009,10,11,14,19,235.80
2009,10,11,14,20,232.00
2009,10,11,14,21,230.00
2009,10,11,14,22,230.00
2009,10,11,14,23,229.60
2009,10,11,14,24,226.20
2009,10,11,14,25,221.50
2009,10,11,14,26,217.40
2009,10,11,14,27,213.70
2009,10,11,14,28,209.60
2009,10,11,14,29,206.10
2009,10,11,14,30,203.30
2009,10,11,14,31,199.80
2009,10,11,14,32,198.30
2009,10,11,14,33,197.00
2009,10,11,14,34,197.00
2009,10,11,14,35,197.00
2009,10,11,14,36,198.60
2009,10,11,14,37,203.20
2009,10,11,14,38,207.40
2009,10,11,14,39,211.50
2009,10,11,14,40,214.00
2009,10,11,14,41,212.70
2009,10,11,14,42,208.20
2009,10,11,14,43,204.70
2009,10,11,14,44,202.40
2009,10,11,14,45,199.60
2009,10,11,14,46,199.90
2009,10,11,14,47,191.80
2009,10,11,14,48,189.60
2009,10,11,14,49,186.50
2009,10,11,14,50,181.20
2009,10,11,14,51,180.10
2009,10,11,14,52,182.40
2009,10,11,14,53,184.50
2009,10,11,14,54,191.80
2009,10,11,14,55,195.40
2009,10,11,14,56,202.40
2009,10,11,14,57,204.60
2009,10,11,14,58,204.40
2009,10,11,14,59,198.10
2009,10,11,15,00,193.80
2009,10,11,15,01,192.40
2009,10,11,15,02,198.30
2009,10,11,15,03,205.10
2009,10,11,15,04,208.50
2009,10,11,15,05,203.10
2009,10,11,15,06,199.70
2009,10,11,15,07,199.00
2009,10,11,15,08,196.60
2009,10,11,15,09,191.70
2009,10,11,15,10,190.00
2009,10,11,15,11,196.60
2009,10,11,15,12,196.60
2009,10,11,15,13,189.70
2009,10,11,15,14,186.20
2009,10,11,15,15,181.00
2009,10,11,15,16,183.00
2009,10,11,15,17,180.10
2009,10,11,15,18,169.80
2009,10,11,15,19,161.80
2009,10,11,15,20,149.60
2009,10,11,15,21,148.00
2009,10,11,15,22,149.60
2009,10,11,15,23,156.00
2009,10,11,15,24,158.00
2009,10,11,15,25,159.10
2009,10,11,15,26,158.70
2009,10,11,15,27,161.10
2009,10,11,15,28,162.00
2009,10,11,15,29,158.30
2009,10,11,15,30,155.60
2009,10,11,15,31,152.50
2009,10,11,15,32,150.30
2009,10,11,15,33,148.60
2009,10,11,15,34,146.90
2009,10,11,15,35,146.00
2009,10,11,15,36,146.00
2009,10,11,15,37,147.90
2009,10,11,15,38,148.10
2009,10,11,15,39,149.30
2009,10,11,15,40,151.00
2009,10,11,15,41,151.00
2009,10,11,15,42,151.00
2009,10,11,15,43,152.10
2009,10,11,15,44,153.00
2009,10,11,15,45,154.80
2009,10,11,15,46,153.00
2009,10,11,15,47,148.90
2009,10,11,15,48,148.30
2009,10,11,15,49,149.00
2009,10,11,15,50,151.00
2009,10,11,15,51,154.80
2009,10,11,15,52,158.90
2009,10,11,15,53,161.70
2009,10,11,15,54,162.90
2009,10,11,15,55,170.60
2009,10,11,15,56,171.60
2009,10,11,15,57,168.40
2009,10,11,15,58,167.00
2009,10,11,15,59,163.90
2009,10,11,16,00,157.70
2009,10,11,16,01,151.40
2009,10,11,16,02,142.30
2009,10,11,16,03,128.50
2009,10,11,16,04,118.10
2009,10,11,16,05,113.30
2009,10,11,16,06,109.90
2009,10,11,16,07,104.20
2009,10,11,16,08,102.20
2009,10,11,16,09,101.30
2009,10,11,16,10,97.70
2009,10,11,16,11,93.40
2009,10,11,16,12,90.80
2009,10,11,16,13,87.30
2009,10,11,16,14,83.20
2009,10,11,16,15,81.00
2009,10,11,16,16,81.00
2009,10,11,16,17,82.20
2009,10,11,16,18,84.90
2009,10,11,16,19,87.50
2009,10,11,16,20,90.50
2009,10,11,16,21,93.10
2009,10,11,16,22,97.80
2009,10,11,16,23,103.00
2009,10,11,16,24,106.80
2009,10,11,16,25,111.20
2009,10,11,16,26,113.00
2009,10,11,16,27,113.00
2009,10,11,16,28,113.00
2009,10,11,16,29,111.00
2009,10,11,16,30,108.80
2009,10,11,16,31,106.40
2009,10,11,16,32,102.40
2009,10,11,16,33,100.00
2009,10,11,16,34,99.00
2009,10,11,16,35,98.00
2009,10,11,16,36,99.50
2009,10,11,16,37,100.00
2009,10,11,16,38,102.00
2009,10,11,16,39,104.00
2009,10,11,16,40,104.00
2009,10,11,16,41,104.00
2009,10,11,16,42,102.00
2009,10,11,16,43,98.80
2009,10,11,16,44,97.30
2009,10,11,16,45,93.80
2009,10,11,16,46,91.00
2009,10,11,16,47,87.90
2009,10,11,16,48,85.60
2009,10,11,16,49,83.70
2009,10,11,16,50,83.00
2009,10,11,16,51,82.00
2009,10,11,16,52,81.00
2009,10,11,16,53,81.00
2009,10,11,16,54,81.00
2009,10,11,16,55,81.00
2009,10,11,16,56,81.00
2009,10,11,16,57,80.60
2009,10,11,16,58,79.00
2009,10,11,16,59,78.00
2009,10,11,17,00,76.40
2009,10,11,17,01,76.00
2009,10,11,17,02,74.50
2009,10,11,17,03,72.10
2009,10,11,17,04,69.90
2009,10,11,17,05,66.60
2009,10,11,17,06,64.00
2009,10,11,17,07,61.20
2009,10,11,17,08,57.80
2009,10,11,17,09,54.70
2009,10,11,17,10,53.20
2009,10,11,17,11,53.00
2009,10,11,17,12,51.00
2009,10,11,17,13,49.00
2009,10,11,17,14,49.00
2009,10,11,17,15,49.00
2009,10,11,17,16,48.20
2009,10,11,17,17,47.00
2009,10,11,17,18,47.00
2009,10,11,17,19,46.30